date,batt_volt,AirTemp_C,Solar_kW,RH,Manual_BP,StationID,WS_ms,PTemp,WS_15min_max,Prog_Sig,Solar_Raw,Bar_mbar,Solar_MJ,Max_WS_2min,Pressure_Raw,Rain_mm,WD_15min_ave,Max_AirTemp_1min,WindDir,WS_15min_med,WS_15min_ave,Elevation_Correction
2023-08-01T00:08:21Z,13.18548,16.43754,0.0,81.84459,0,1156,0.9799999,17.76652,4.312,43690,0.0,1012.048,0.0,3.959,1010.248,0,222.4909214,16.57,231.1398,0.0392,0.615138460947,1.80078
2023-08-01T00:23:24Z,13.19968,16.17882,0.0,86.369,0,1156,3.8612,17.28756,4.8804,43690,0.0,1012.048,0.0,4.528,1010.248,0,210.536419399,16.25,196.2352,3.0772,2.54338823294,1.80078
2023-08-01T00:38:22Z,13.21177,15.81147,0.0,87.4617,0,1156,0.0392,16.78601,5.586,43690,0.0,1012.048,0.0,3.92,1010.248,0,217.038716066,15.91,195.0992,1.1956,1.75646153728,1.80078
2023-08-01T00:53:24Z,13.21731,15.81159,0.0,87.49576,0,1156,0.0392,16.43808,5.3704,43690,0.0,1012.048,0.0,0.039,1010.248,0,228.913298589,15.91,203.2558,0.0392,0.695799998824,1.80078
2023-08-01T01:08:23Z,13.22283,15.50661,0.0,89.25787,0,1156,0.0392,16.06757,1.4112,43690,0.0,1012.136,0.0,0.039,1010.335,0,229.291564886,15.61,204.2182,0.0392,0.0502177514793,1.80078
2023-08-01T01:23:22Z,13.23565,15.17517,0.0,91.03226,0,1156,0.0392,15.70157,1.0192,43690,0.0,1012.136,0.0,0.039,1010.335,0,212.740022636,15.24,195.8719,0.0392,0.0451147928994,1.80078
2023-08-01T01:38:25Z,13.24162,14.97293,0.0,92.79648,0,1156,0.0392,15.36042,0.8231999,43690,0.0,1012.136,0.0,0.039,1010.335,0,205.871610284,15.07,197.2474,0.0392,0.0484235288235,1.80078
2023-08-01T01:53:27Z,13.24211,15.27987,0.0,93.54534,0,1156,3.8808,15.11642,5.096,43690,0.0,1012.136,0.0,4.175,1010.335,0,195.856761399,15.31,203.2462,3.9102,3.62634588235,1.80078
2023-08-01T02:08:22Z,13.24329,15.28367,0.0,93.55176,0,1156,0.0392,14.99669,4.018,43690,0.0,1012.67,0.0,0.039,1010.87,0,209.289446188,15.22,283.8567,0.0392,0.668371597633,1.80078
2023-08-01T02:23:24Z,13.24921,14.74523,0.0,93.04994,0,1156,0.0392,14.87694,0.0392,43690,0.0,1012.67,0.0,0.039,1010.87,0,136.081348399,14.88,128.6892,0.0392,0.0371247058824,1.80078
2023-08-01T02:38:25Z,13.24939,14.57614,0.0,94.23706,0,1156,0.0392,14.7075,0.0392,43690,0.0,1012.67,0.0,0.039,1010.87,0,168.042799365,14.51,203.95,0.0392,0.0390847058824,1.80078
2023-08-01T02:53:26Z,13.26044,14.20339,0.0,94.84746,0,1156,0.0392,14.49061,0.0392,43690,0.0,1012.67,0.0,0.039,1010.87,0,159.884106412,14.34,262.2187,0.0392,0.0363176470588,1.80078
2023-08-01T03:08:26Z,13.26044,14.50848,0.0,95.22034,0,1156,0.0392,14.32342,0.0392,43690,0.0,1012.553,0.0,0.039,1010.753,0,237.704723689,14.61,267.4173,0.0392,0.0392,1.80078
2023-08-01T03:23:26Z,13.26596,14.40678,0.0,94.77966,0,1156,0.0392,14.1811,0.0392,43690,0.0,1012.553,0.0,0.039,1010.753,0,231.476380504,14.47,214.6607,0.0392,0.0392,1.80078
2023-08-01T03:38:26Z,13.27148,14.54237,0.0,96.1695,0,1156,0.0392,13.99131,0.0392,43690,0.0,1012.553,0.0,0.039,1010.753,0,203.313584632,14.54,202.1214,0.0392,0.0392,1.80078
2023-08-01T03:53:26Z,13.27148,14.44068,0.0,97.08474,0,1156,0.0392,13.87158,0.0392,43690,0.0,1012.553,0.0,0.039,1010.753,0,197.326322823,14.47,191.0502,0.0392,0.0392,1.80078
2023-08-01T04:08:26Z,13.27148,14.33898,0.0,97.79661,0,1156,0.0392,13.77668,0.0392,43690,0.0,1012.716,0.0,0.039,1010.915,0,193.248066189,14.31,193.6495,0.0392,0.0392,1.80078
2023-08-01T04:23:25Z,13.27148,14.0339,0.0,98.0339,0,1156,0.0392,13.70665,0.0588,43690,0.0,1012.716,0.0,0.039,1010.915,0,193.020756513,14.1,191.002,0.0392,0.0393152941176,1.80078
2023-08-01T04:38:25Z,13.277,13.79661,0.0,98.06779,0,1156,0.0392,13.54172,0.0392,43690,0.0,1012.716,0.0,0.039,1010.915,0,185.234218453,13.86,187.7288,0.0392,0.0392,1.80078
2023-08-01T04:53:25Z,13.28252,13.9661,0.0,98.74577,0,1156,0.0392,13.3994,0.0392,43690,0.0,1012.716,0.0,0.039,1010.915,0,200.45317026,13.97,210.882,0.0392,0.0392,1.80078
2023-08-01T05:08:25Z,13.28252,13.79661,0.0,98.94915,0,1156,0.0392,13.28191,0.0392,43690,0.0,1012.716,0.0,0.039,1010.915,0,217.261751692,13.9,204.6003,0.0392,0.0392,1.80078
2023-08-01T05:23:24Z,13.28252,14.0339,0.0,99.49152,0,1156,0.0392,13.18702,0.392,43690,0.0,1012.716,0.0,0.039,1010.915,0,199.528916456,13.97,183.9742,0.0392,0.04312,1.80078
2023-08-01T05:38:24Z,13.28252,14.54237,0.0,100.1356,0,1156,0.0392,13.14183,2.8028,43690,0.0,1012.716,0.0,0.039,1010.915,0,180.449428849,14.64,184.3593,0.0392,0.165677646471,1.80078
2023-08-01T05:53:24Z,13.28252,14.47458,0.0,100.1356,0,1156,1.9796,13.21187,3.7436,43690,0.0,1012.716,0.0,3.744,1010.915,0,186.605440751,14.51,188.5953,0.686,1.30501411588,1.80078
2023-08-01T06:08:25Z,13.27148,14.71186,0.0,100.1017,0,1156,3.4888,13.3768,4.0376,43690,0.0,1011.74,0.0,3.998,1009.939,0,187.188959678,14.81,188.162,3.1556,2.61083529176,1.80078
2023-08-01T06:23:25Z,13.26596,14.74576,0.0,100.0678,0,1156,3.3124,13.70665,4.214,43690,0.0,1011.74,0.0,4.214,1009.939,0,191.039783762,14.85,186.2125,3.4104,2.89111529294,1.80078
2023-08-01T06:38:25Z,13.26044,15.08475,0.0,100.0339,0,1156,0.0392,14.13365,4.0768,43690,0.0,1011.74,0.0,3.822,1009.939,0,185.579395093,15.08,188.0176,3.2928,2.58039764588,1.80078
2023-08-01T06:53:26Z,13.24939,15.01695,0.0,100.1017,0,1156,0.0392,14.61261,3.9004,43690,0.0,1011.74,0.0,3.685,1009.939,0,192.138870197,15.12,196.658,1.2936,1.63279529235,1.80078
2023-08-01T07:08:27Z,13.23835,15.01695,0.0,100.1017,0,1156,3.234,14.94924,3.724,43690,0.0,1012.065,0.0,3.234,1010.264,0,195.698618282,15.08,188.1139,0.4606,1.17011999941,1.80078
2023-08-01T07:23:27Z,13.23666,14.976,0.0,100.0889,0,1156,4.2532,15.21357,5.0764,43690,0.0,1012.065,0.0,4.763,1010.264,0,194.280786436,15.11,191.8198,3.332,2.83127764647,1.80078
2023-08-01T07:38:28Z,13.23605,14.93934,0.0,100.1177,0,1156,1.3132,15.38527,4.998,43690,0.0,1012.065,0.0,4.155,1010.264,0,189.984085928,15.04,191.5214,3.92,3.75605176471,1.80078
2023-08-01T07:53:27Z,13.23605,14.73528,0.0,100.0825,0,1156,0.1764,15.45757,3.1752,43690,0.0,1012.065,0.0,0.039,1010.264,0,198.921049215,14.91,193.6605,0.0392,0.220096470588,1.80078
2023-08-01T08:08:27Z,13.23597,14.80376,0.0,100.0838,0,1156,0.0392,15.50502,3.234,43690,0.0,1013.034,0.0,0.039,1011.233,0,201.735427233,14.87,210.2427,0.0392,0.117023528824,1.80078
2023-08-01T08:23:27Z,13.23592,14.66869,0.0,100.1186,0,1156,0.0392,15.52987,2.9204,43690,0.0,1013.034,0.0,0.039,1011.233,0,194.265827917,14.74,181.8254,0.0392,0.132703528824,1.80078
2023-08-01T08:38:27Z,13.2361,14.70212,0.0,100.1517,0,1156,0.0392,15.55471,2.7048,43690,0.0,1013.034,0.0,1.627,1011.233,0,201.948789081,14.74,198.6924,0.0392,0.185162352353,1.80078
2023-08-01T08:53:28Z,13.23611,14.60087,0.0009647661,100.0846,0,1156,0.0392,15.52987,1.3916,43690,0.06753362,1013.034,4.82383e-06,0.176,1011.233,0,187.735068429,14.6,188.7556,0.0392,0.0522282352941,1.80078
2023-08-01T09:08:28Z,13.23611,14.4992,0.004341412,100.0847,0,1156,0.0392,15.50502,0.0392,43690,0.3038988,1013.441,2.170706e-05,0.039,1011.64,0,185.521188198,14.63,187.8894,0.0392,0.0392,1.80078
2023-08-01T09:23:28Z,13.23611,14.63457,0.01061232,100.0843,0,1156,0.0392,15.50502,0.0392,43690,0.7428626,1013.441,5.306161e-05,0.039,1011.64,0,198.782070097,14.67,189.7897,0.0392,0.0392,1.80078
2023-08-01T09:38:29Z,13.23611,14.80426,0.01350655,100.0847,0,1156,0.0392,15.52987,2.7244,43690,0.9454586,1013.441,6.753276e-05,2.724,1011.64,0,197.179608022,14.8,197.0096,0.0392,0.0630658817647,1.80078
2023-08-01T09:53:29Z,13.23059,14.77037,0.0246007,100.0847,0,1156,2.4304,15.60442,3.822,43690,1.722049,1013.441,0.0001230035,3.704,1011.64,0,199.055520839,14.84,189.0445,0.0392,0.76889647,1.80078
2023-08-01T10:08:30Z,13.22507,14.83815,0.05788233,100.1186,0,1156,0.0392,15.72642,3.7044,43690,4.051763,1013.606,0.0002894116,0.118,1011.805,0,198.183698411,15.04,204.8063,0.0392,0.91843294,1.80078
2023-08-01T10:23:31Z,13.22462,14.83769,0.05016261,100.1178,0,1156,0.0392,15.89586,2.1952,43690,3.511383,1013.606,0.0002508131,0.039,1011.805,0,203.157382078,15.01,242.3436,0.0392,0.08485647,1.80078
2023-08-01T10:38:32Z,13.21837,14.66231,0.07475272,100.1408,0,1156,0.0392,16.02012,0.0392,43690,5.23269,1013.606,0.0003737636,0.039,1011.805,0,216.556172713,14.73,203.8199,0.0392,0.0392,1.80078
2023-08-01T10:53:32Z,13.21755,14.69361,0.08777234,100.1022,0,1156,0.0392,16.14212,0.0392,43690,6.144063,1013.606,0.0004388616,0.039,1011.805,0,220.646740906,14.73,277.9384,0.0392,0.0389694117647,1.80078
2023-08-01T11:08:34Z,13.21761,15.20165,0.1427391,100.1356,0,1156,0.0392,16.26638,0.0392,43690,9.991738,1015.146,0.0007136955,0.039,1013.345,0,196.584656432,15.3,200.7778,0.0392,0.0389694117647,1.80078
2023-08-01T11:23:34Z,13.20628,15.43885,0.4084455,100.1017,0,1156,0.0392,16.6369,0.0392,43690,28.59118,1015.146,0.002042227,0.039,1013.345,0,197.922612974,15.47,211.3881,0.0392,0.0392,1.80078
2023-08-01T11:38:35Z,13.18972,15.64218,0.1321296,100.1017,0,1156,0.0392,17.26045,0.0392,43690,9.249071,1015.146,0.0006606479,0.039,1013.345,0,197.587826236,15.74,189.2532,0.0392,0.0392,1.80078
2023-08-01T11:53:35Z,13.16626,15.83857,0.2141078,99.91986,0,1156,0.0392,18.2003,0.0392,43690,14.98755,1015.146,0.001070539,0.039,1013.345,0,193.21513636,15.94,192.6217,0.0392,0.0392,1.80078
2023-08-01T12:08:32Z,13.15799,15.69205,0.2246576,98.85,0,1156,0.0392,18.89389,3.6456,43690,15.72603,1015.337,0.001123288,2.411,1013.536,0,199.835602111,15.76,193.8825,0.0392,0.223718343195,1.80078
2023-08-01T12:23:33Z,13.15216,15.65721,0.2564674,98.03529,0,1156,1.5288,19.28474,4.2532,43690,17.95272,1015.337,0.001282337,3.489,1013.536,0,200.281320049,15.69,200.8781,0.0392,0.887879999412,1.80078
2023-08-01T12:38:34Z,13.14112,15.82658,0.2709192,97.01902,0,1156,2.2932,19.75692,2.8812,43690,18.96434,1015.337,0.001354596,0.588,1013.536,0,194.779641916,15.89,197.992,0.0392,0.104687058235,1.80078
2023-08-01T12:53:34Z,13.1356,16.13146,0.26417,96.61251,0,1156,7.4872,20.1297,7.9576,43690,18.4919,1015.337,0.00132085,7.958,1013.536,0,193.853003941,16.3,186.6637,3.4104,3.26916465294,1.80078
2023-08-01T13:08:35Z,13.11764,17.27839,0.6734407,91.18475,0,1156,5.7624,20.82555,8.1732,43690,47.14085,1015.933,0.003367204,8.17,1014.132,0,190.591610554,17.41,185.9745,6.8306,6.72210808824,1.80078
2023-08-01T13:23:35Z,13.09276,17.46777,0.7076327,88.65682,0,1156,5.586,22.08395,7.643999,43690,49.53429,1015.933,0.003538164,7.193,1014.132,0,198.006378802,17.54,187.5887,6.468,6.37299752353,1.80078
2023-08-01T13:38:37Z,13.07601,17.90725,0.7441746,86.89474,0,1156,5.3312,23.15258,7.9772,43690,52.09223,1015.933,0.003720873,6.233,1014.132,0,200.33747023,18.01,199.4637,5.7036,5.65436938235,1.80078
2023-08-01T13:53:37Z,13.05539,18.22757,0.7758626,84.193,0,1156,5.7232,24.07209,6.2524,43690,54.31038,1015.933,0.003879313,6.252,1014.132,0,192.871150685,18.36,185.3881,4.9686,4.89734823529,1.80078
2023-08-01T14:08:33Z,13.04402,18.56469,0.8081454,84.56335,0,1156,4.6648,24.71598,6.7228,43690,56.57018,1015.033,0.004040727,5.664,1013.232,0,186.9464404,18.63,182.6677,5.3704,5.20710532544,1.80078
2023-08-01T14:23:35Z,13.04401,18.73393,0.8354168,82.49832,0,1156,5.6644,25.22205,7.1736,43690,58.47918,1015.033,0.004177084,7.017,1013.232,0,185.944453569,18.84,184.6625,5.5272,5.46551763529,1.80078
2023-08-01T14:38:36Z,13.03298,19.00475,0.861849,82.46447,0,1156,6.468,25.58353,6.6444,43690,60.32943,1015.033,0.004309245,6.213,1013.232,0,186.128792572,19.07,186.8257,5.5664,5.46770822353,1.80078
2023-08-01T14:53:37Z,13.03133,18.52147,0.8830242,81.33435,0,1156,4.5472,25.88627,6.781599,43690,61.8117,1015.033,0.004415121,5.312,1013.232,0,183.256481142,18.66,179.1058,5.4292,5.35126116471,1.80078
2023-08-01T15:08:38Z,13.03067,17.87739,0.8979578,83.3976,0,1156,7.5264,26.06701,7.5264,43690,62.85704,1015.83,0.004489788,7.154,1014.029,0,180.492891508,18.08,181.0733,5.4782,5.52431763529,1.80078
2023-08-01T15:23:38Z,13.02515,18.14818,0.9128916,83.32994,0,1156,7.8204,26.15964,8.33,43690,63.90241,1015.83,0.004564458,7.624001,1014.029,0,180.933694857,18.18,183.5726,6.566,6.52945160588,1.80078
2023-08-01T15:38:38Z,13.03059,18.48705,0.9268619,81.84126,0,1156,4.7824,26.06701,7.8008,43690,64.88033,1015.83,0.00463431,7.272,1014.029,0,180.69034201,18.62,176.004,6.37,6.36734815882,1.80078
2023-08-01T15:53:39Z,13.03033,18.41929,0.936015,82.14578,0,1156,4.8216,25.94501,7.9772,43690,65.52105,1015.83,0.004680075,7.448001,1014.029,0,179.280371306,18.42,181.555,6.3014,6.28675757647,1.80078
2023-08-01T16:08:39Z,13.03077,18.41936,0.9437228,79.60738,0,1156,6.762,25.85464,7.546,43690,66.06059,1015.431,0.004718614,7.193,1013.63,0,179.808376394,18.55,181.9397,5.831,5.83987762353,1.80078
2023-08-01T16:23:40Z,13.03612,18.48623,0.9480584,79.74164,0,1156,6.3112,25.6739,7.7028,43690,66.36409,1015.431,0.004740292,7.585001,1013.63,0,181.050866948,18.66,186.8635,6.174,6.08879762353,1.80078
2023-08-01T16:38:40Z,13.03566,18.9929,0.9461314,77.84492,0,1156,4.7432,25.52253,7.7812,43690,66.2292,1015.431,0.004730657,6.782001,1013.63,0,182.716114933,19.03,177.7287,6.0172,5.97465642941,1.80078
2023-08-01T16:53:40Z,13.04165,19.67361,0.9408364,77.27446,0,1156,4.4296,25.43216,6.6836,43690,65.85855,1015.431,0.004704182,5.762,1013.63,0,184.877235086,19.61,185.7667,4.8412,4.74412235294,1.80078
2023-08-01T17:08:36Z,13.03598,19.97393,0.9350525,74.66281,0,1156,5.8604,25.4909,6.5856,43690,65.45368,1015.764,0.004675263,6.586,1013.963,0,189.741609716,20.11,190.7276,5.0764,5.02919763314,1.80078
2023-08-01T17:23:38Z,13.02959,20.2448,0.9230081,74.6291,0,1156,3.5084,25.6739,6.4288,43690,64.61056,1015.764,0.00461504,4.763,1013.963,0,189.668709697,20.35,184.6723,4.7726,4.45600235294,1.80078
2023-08-01T17:38:38Z,13.02514,20.07759,0.9109646,75.0039,0,1156,4.0572,26.06701,5.0176,43690,63.76752,1015.764,0.004554823,5.018,1013.963,0,189.204832009,20.21,194.4832,3.6848,3.16194117588,1.80078
2023-08-01T17:53:39Z,13.01849,20.44445,0.8941038,74.42182,0,1156,3.3712,26.4059,6.4092,43690,62.58727,1015.764,0.004470519,4.939,1013.963,0,187.01199968,20.41,192.8076,4.4688,4.31776470588,1.80078
2023-08-01T18:08:40Z,13.01759,20.16933,0.8733892,72.14906,0,1156,2.45,26.74479,6.468,43690,61.13724,1015.108,0.004366946,5.704,1013.308,0,186.260291627,20.24,184.9848,4.7432,4.36849411765,1.80078
2023-08-01T18:23:42Z,13.01204,20.13539,0.851711,71.09986,0,1156,4.7432,26.90068,6.0564,43690,59.61977,1015.108,0.004258555,4.822,1013.308,0,187.888790934,20.41,183.5429,4.8216,4.64612235294,1.80078
2023-08-01T18:38:38Z,13.01204,20.40612,0.8256972,71.57363,0,1156,3.8024,26.99556,5.2136,43690,57.7988,1015.108,0.004128486,5.214,1013.308,0,186.663465058,20.51,181.5246,3.5084,2.87145798757,1.80078
2023-08-01T18:53:40Z,13.00653,20.00003,0.7919756,72.58886,0,1156,1.0976,27.15145,4.5668,43690,55.43829,1015.108,0.003959878,3.842,1013.308,0,184.550242639,20.03,189.1172,3.2438,2.66536941118,1.80078
2023-08-01T19:08:42Z,13.00653,20.67685,0.7568064,67.41119,0,1156,3.2536,27.3096,4.1552,43690,52.97645,1015.263,0.003784032,3.92,1013.462,0,189.983279934,20.91,188.132,2.303,1.97637176294,1.80078
2023-08-01T19:23:42Z,13.00653,21.35366,0.7230869,68.79867,0,1156,0.0392,27.3096,4.5472,43690,50.61608,1015.263,0.003615434,4.038,1013.462,0,187.564093025,21.32,196.3974,2.7048,2.29896470412,1.80078
2023-08-01T19:38:43Z,13.00653,20.91373,0.6835772,67.24199,0,1156,0.0392,27.27797,4.0964,43690,47.85041,1015.263,0.003417886,3.371,1013.462,0,188.470759867,21.15,183.3747,0.7252,1.25428470353,1.80078
2023-08-01T19:53:43Z,13.01204,20.67685,0.6407099,67.0051,0,1156,3.4692,27.11982,4.8216,43690,44.84969,1015.263,0.003203549,4.822,1013.462,0,189.438092766,20.81,191.3757,3.2144,2.54235058824,1.80078
2023-08-01T20:08:43Z,13.01204,20.84605,0.5992805,68.86635,0,1156,3.6652,26.90068,4.6648,43690,41.94964,1015.831,0.002996403,4.136,1014.031,0,186.376957162,20.91,179.9388,3.1752,2.50165176412,1.80078
2023-08-01T20:23:44Z,13.01755,20.30459,0.5530338,68.69715,0,1156,3.4692,26.59116,4.8412,43690,38.71237,1015.831,0.002765169,4.41,1014.031,0,187.884120204,20.41,190.2945,3.724,3.45697882353,1.80078
2023-08-01T20:38:44Z,13.02488,20.41259,0.5111228,69.88907,0,1156,3.8024,26.22064,6.1152,43690,35.77859,1015.831,0.002555614,4.939,1014.031,0,188.091908514,20.38,175.873,4.0278,3.72745882235,1.80078
2023-08-01T20:53:45Z,13.0356,19.90787,0.464876,69.68944,0,1156,5.7036,25.6739,6.5268,43690,32.54132,1015.831,0.00232438,6.017,1014.031,0,187.975528803,19.98,187.5367,4.802,4.73662822941,1.80078
2023-08-01T21:08:42Z,13.05465,19.84971,0.4215363,70.9869,0,1156,2.8224,24.92383,6.566,43690,29.50754,1015.862,0.002107682,5.86,1014.062,0,188.328550109,19.92,192.2773,5.1156,4.94627455621,1.80078
2023-08-01T21:23:43Z,13.07708,19.51249,0.3773154,72.98574,0,1156,5.6644,23.72417,7.1736,43690,26.41208,1015.862,0.001886577,7.174,1014.062,0,189.153807922,19.51,190.6471,5.1352,5.07155761765,1.80078
2023-08-01T21:38:44Z,13.10038,18.12653,0.1893863,76.77983,0,1156,4.4492,22.50191,6.9384,43690,13.25704,1015.862,0.0009469314,5.253,1014.062,0,192.07841474,18.29,195.2446,4.6746,4.54166588176,1.80078
2023-08-01T21:53:45Z,13.10345,18.2453,0.06121116,78.83434,0,1156,4.214,21.97325,5.5272,43690,4.284782,1015.862,0.0003060558,5.331,1014.062,0,194.548078001,18.31,195.6148,4.2728,3.75466823412,1.80078
2023-08-01T22:08:47Z,13.1146,17.36539,0.04241453,83.20352,0,1156,3.5476,21.45136,5.1548,43690,2.969017,1016.422,0.0002120727,4.841,1014.621,0,194.701373082,17.47,199.8483,3.9592,3.61481647,1.80078
2023-08-01T22:23:43Z,13.13667,16.48493,0.05784658,86.25127,0,1156,4.5864,20.52958,5.5468,43690,4.049261,1016.422,0.0002892329,5.547,1014.621,0,195.616337342,16.62,193.0681,4.312,4.09280473373,1.80078
2023-08-01T22:38:44Z,13.15696,17.24584,0.1316029,84.00573,0,1156,2.156,19.62589,5.194,43690,9.2122,1016.422,0.0006580142,4.116,1014.621,0,201.344607581,17.18,202.7658,3.8808,3.44983058706,1.80078
2023-08-01T22:53:46Z,13.15765,17.38473,0.05640124,82.38469,0,1156,4.2728,19.36381,6.6248,43690,3.948087,1016.422,0.0002820062,6.625,1014.621,0,197.585306454,17.42,193.2774,4.655,4.49796941176,1.80078
2023-08-01T23:08:42Z,13.15766,16.77505,0.02362103,85.23032,0,1156,5.292,19.15371,6.1152,43690,1.653472,1017.248,0.0001181052,5.527,1015.447,0,192.090513983,16.98,189.3092,4.9588,4.87216568047,1.80078
2023-08-01T23:23:45Z,13.17421,16.23304,0.02988795,88.21135,0,1156,5.2332,18.53241,5.684,43690,2.092156,1017.248,0.0001494397,4.567,1015.447,0,192.091191037,16.3,190.2232,4.361,4.17641411765,1.80078
2023-08-01T23:38:47Z,13.19664,15.65767,0.007232878,90.65119,0,1156,1.5484,17.76652,5.1156,43690,0.5063014,1017.248,3.616439e-05,2.058,1015.447,0,196.312697361,15.73,189.5033,3.2438,2.67378588118,1.80078
2023-08-01T23:53:44Z,13.21086,15.29934,0.001928895,93.11433,0,1156,0.4704,17.01194,4.312,43690,0.1350226,1017.248,9.644475e-06,4.194,1015.447,0,195.710408859,15.47,192.8964,3.1556,2.4865325426,1.80078
2023-08-02T00:08:46Z,13.22281,15.03209,0.0,94.84903,0,1156,0.5292,16.38838,4.8216,43690,0.0,1017.415,0.0,3.744,1015.614,0,199.369487115,15.13,197.433,3.3712,2.64150352765,1.80078
2023-08-02T00:23:48Z,13.23387,14.93221,0.0,96.03817,0,1156,4.312,15.82357,4.312,43690,0.0,1017.415,0.0,3.724,1015.614,0,204.315512267,14.97,197.0063,0.4312,1.12400235235,1.80078
2023-08-02T00:38:49Z,13.24152,14.83772,0.0,96.79638,0,1156,0.9211999,15.43272,5.5664,43690,0.0,1017.415,0.0,5.018,1015.614,0,203.353072147,14.94,212.2643,3.9298,3.55520941118,1.80078
2023-08-02T00:53:46Z,13.24709,14.73811,0.0,97.07117,0,1156,4.9784,15.14128,5.6056,43690,0.0,1017.415,0.0,5.292,1015.614,0,203.781895716,14.87,200.3845,3.9004,3.47836213018,1.80078
2023-08-02T01:08:47Z,13.24871,14.7418,0.0,97.65395,0,1156,4.7628,14.94924,5.7232,43690,0.0,1017.2,0.0,5.351,1015.399,0,199.52025479,14.81,196.9807,4.7922,4.59124235294,1.80078
2023-08-02T01:23:48Z,13.2548,14.67653,0.0,97.76013,0,1156,4.0572,14.7798,5.6448,43690,0.0,1017.2,0.0,4.861,1015.399,0,203.161746355,14.75,207.6033,4.018,3.70244,1.80078
2023-08-02T01:38:49Z,13.25491,14.57624,0.0,97.93215,0,1156,4.2532,14.6352,5.9976,43690,0.0,1017.2,0.0,5.155,1015.399,0,201.451789632,14.71,204.1188,4.6844,4.50592470588,1.80078
2023-08-02T01:53:49Z,13.25492,14.57627,0.0,98.1695,0,1156,5.0372,14.49061,5.1548,43690,0.0,1017.2,0.0,5.037,1015.399,0,200.507089356,14.64,197.4281,4.5276,4.38590352941,1.80078
2023-08-02T02:08:50Z,13.24939,14.64407,0.0,98.57627,0,1156,4.3316,14.37313,5.292,43690,0.0,1017.597,0.0,4.841,1015.797,0,201.667834473,14.64,204.6003,4.0768,3.77495999941,1.80078
2023-08-02T02:23:51Z,13.26044,14.50848,0.0,98.91526,0,1156,4.1944,14.32342,5.7624,43690,0.0,1017.597,0.0,4.547,1015.797,0,203.824410913,14.61,203.5895,4.1062,3.82499764588,1.80078
2023-08-02T02:38:47Z,13.26044,14.54237,0.0,99.05085,0,1156,3.5868,14.25339,7.0364,43690,0.0,1017.597,0.0,5.527,1015.797,0,203.721699584,14.58,200.6292,4.9784,4.82299171598,1.80078
2023-08-02T02:53:50Z,13.26044,14.33898,0.0,99.08474,0,1156,4.704,14.1811,6.3504,43690,0.0,1017.597,0.0,6.115,1015.797,0,202.655080751,14.44,207.7051,4.9588,4.75772705882,1.80078
2023-08-02T03:08:51Z,13.26596,14.33898,0.0,99.38983,0,1156,4.9196,14.1088,6.1152,43690,0.0,1017.597,0.0,5.978,1015.797,0,201.609659732,14.37,192.4702,4.9294,4.74054823529,1.80078
2023-08-02T03:23:52Z,13.27148,14.20339,0.0,99.38983,0,1156,1.176,14.01391,5.7232,43690,0.0,1017.597,0.0,3.685,1015.797,0,206.976541388,14.24,211.4356,3.2438,2.78043293824,1.80078
2023-08-02T03:38:53Z,13.27148,14.16949,0.0,99.59322,0,1156,0.7644,13.89643,4.4492,43690,0.0,1017.597,0.0,4.449,1015.797,0,205.655287299,14.2,198.5593,1.8032,1.86580470529,1.80078
2023-08-02T03:53:53Z,13.27148,14.0339,0.0,99.8305,0,1156,3.2536,13.75409,4.704,43690,0.0,1017.597,0.0,4.43,1015.797,0,200.605198528,14.24,199.5942,3.724,3.43611058824,1.80078
2023-08-02T04:08:53Z,13.277,14.1017,0.0,100.0678,0,1156,3.234,13.65921,4.7824,43690,0.0,1017.435,0.0,4.684,1015.634,0,201.521864794,14.2,200.7976,3.969,3.58622352941,1.80078
2023-08-02T04:23:52Z,13.277,14.13559,0.0,100.0678,0,1156,0.098,13.61176,4.4492,43690,0.0,1017.435,0.0,3.548,1015.634,0,203.386711296,14.24,205.202,3.4006,2.7764625,1.80078
2023-08-02T04:38:53Z,13.28252,13.79661,0.0,99.93221,0,1156,0.0392,13.49428,3.234,43690,0.0,1017.435,0.0,0.039,1015.634,0,210.455499558,14.0,202.9397,0.0392,0.14169647,1.80078
2023-08-02T04:53:52Z,13.28804,13.76271,0.0,100.1017,0,1156,3.3124,13.3045,3.9788,43690,0.0,1017.435,0.0,3.802,1015.634,0,205.013771571,13.83,198.0298,0.0392,0.356950587647,1.80078
2023-08-02T05:08:51Z,13.29356,13.83051,0.0,100.0678,0,1156,0.0392,13.16443,4.116,43690,0.0,1017.516,0.0,1.509,1015.715,0,196.208866093,13.86,220.6054,1.8522,1.75097176471,1.80078
2023-08-02T05:23:51Z,13.29356,13.83051,0.0,99.9661,0,1156,2.8616,13.0718,4.802,43690,0.0,1017.516,0.0,4.567,1015.715,0,195.63639342,13.97,194.3475,3.2144,2.42509647059,1.80078
2023-08-02T05:38:50Z,13.28804,13.76271,0.0,99.52542,0,1156,0.0392,13.02436,4.5276,43690,0.0,1017.516,0.0,4.038,1015.715,0,197.019829434,13.83,198.7519,3.038,2.10976705824,1.80078
2023-08-02T05:53:50Z,13.29356,13.66102,0.0,99.22034,0,1156,0.0392,12.95432,3.7632,43690,0.0,1017.516,0.0,3.391,1015.715,0,199.528762838,13.8,190.7373,0.0392,0.408487058824,1.80078
2023-08-02T06:08:52Z,13.29356,13.79661,0.0,99.32204,0,1156,3.6456,12.88428,4.4688,43690,0.0,1018.248,0.0,3.998,1016.447,0,198.013492429,13.83,194.8288,1.4112,1.75835058647,1.80078
2023-08-02T06:23:52Z,13.29356,13.49183,0.0,99.18701,0,1156,0.0392,12.78939,3.7044,43690,0.0,1018.248,0.0,1.254,1016.447,0,208.534670223,13.7,210.787,0.0392,0.264023528824,1.80078
2023-08-02T06:38:52Z,13.30554,13.1208,0.0,99.05486,0,1156,0.0392,12.60414,0.0392,43690,0.0,1018.248,0.0,0.039,1016.447,0,221.71437927,13.19,236.4035,0.0392,0.0392,1.80078
2023-08-02T06:53:53Z,13.30705,13.0638,0.0,99.31237,0,1156,0.0392,12.37143,0.0392,43690,0.0,1018.248,0.0,0.039,1016.447,0,230.583900612,13.06,260.3327,0.0392,0.0392,1.80078
2023-08-02T07:08:54Z,13.31453,12.83114,0.0,99.15162,0,1156,0.0392,12.23362,0.0392,43690,0.0,1017.423,0.0,0.039,1015.622,0,241.459054931,12.97,247.0659,0.0392,0.0392,1.80078
2023-08-02T07:23:54Z,13.32015,12.69582,0.0,99.15224,0,1156,0.0392,12.02351,0.0392,43690,0.0,1017.423,0.0,0.039,1015.622,0,221.270861069,12.76,207.7032,0.0392,0.0392,1.80078
2023-08-02T07:38:53Z,13.32568,12.56018,0.0,99.59306,0,1156,0.0392,11.79306,0.0392,43690,0.0,1017.423,0.0,0.039,1015.622,0,201.120005606,12.8,227.5178,0.0392,0.0392,1.80078